Dewpoint
30 25 21 23 23 20 21 20 18 24 29 28 26 26 27 28 29 34 35 36 36 38 40 40 40 41 41 41 41 41 42 42 43 44 45 44 44 46 46 45 45 46 50 56
27 24 26 28 26 23 21 22 24 27 30 29 29 29 29 30 30 33 35 35 36 38 38 39 40 40 40 40 41 42 42 43 44 45 46 46 45 46 47 47 48 48 49 54
27 27 28 27 26 27 27 23 25 26 30 28 27 20 22 34 36 36 36 36 37 38 38 39 40 39 40 41 42 42 43 44 45 46 47 47 46 48 47 49 50 52 54 56
26 27 27 27 26 27 25 31 30 30 26 16 25 14 20 29 33 35 33 34 36 37 39 39 39 39 40 41 42 43 44 45 48 48 47 46 45 46 48 47 49 52 53 57
25 28 30 30 30 31 29 32 30 30 27 20 24 15 21 29 30 32 33 34 36 37 39 39 39 39 41 41 41 43 44 47 49 50 49 47 49 51 48 47 47 49 51 53
29 31 31 31 31 32 32 30 28 28 25 11 20 18 22 24 29 31 32 34 36 38 39 38 38 40 41 41 41 42 43 45 46 47 48 49 48 47 46 46 47 48 50 53
28 31 33 32 30 32 29 24 12 10 13 11 24 21 25 27 29 33 33 35 36 38 38 36 37 39 40 40 40 41 42 43 43 44 44 45 46 47 47 47 48 49 50 51
17 17 32 32 31 29 32 26 15 6 11 17 26 21 25 31 36 35 34 35 37 38 38 36 36 38 39 39 39 40 41 41 41 41 42 41 41 43 43 43 45 47 47 49
23 26 34 33 35 32 31 25 30 26 27 24 20 23 28 34 35 35 35 37 37 38 38 35 36 37 38 38 38 39 40 40 40 40 39 39 39 40 40 39 40 41 42 44
30 25 32 34 35 36 33 34 26 28 17 14 17 19 24 24 28 34 35 36 37 38 38 35 36 38 39 39 38 38 39 39 39 39 39 38 38 38 38 38 37 36 37 40
32 28 26 33 32 31 33 30 30 28 28 19 18 21 27 28 30 31 34 36 37 38 38 35 36 38 38 38 38 38 38 38 38 38 38 37 37 37 37 37 36 36 36 36
32 28 23 27 32 33 33 30 30 22 19 25 21 24 30 33 35 34 34 35 37 38 38 35 36 36 37 36 36 36 36 37 37 37 37 36 36 36 36 35 35 35 35 36
32 27 18 20 26 32 31 32 30 28 28 25 22 22 31 35 34 34 35 35 35 37 37 34 35 35 34 34 35 34 32 33 35 35 35 34 35 35 35 35 35 34 33 34
36 28 23 7 9 28 30 30 31 29 27 23 25 24 26 28 33 34 34 35 36 36 37 33 34 34 35 33 32 33 33 32 31 32 31 31 31 32 33 33 33 33 33 32
31 25 24 27 28 28 27 27 31 30 29 25 22 25 23 24 26 27 30 32 32 36 37 34 32 34 34 33 31 28 27 28 28 28 29 29 30 31 31 31 32 32 32 32
32 25 25 23 26 26 26 26 28 29 31 30 29 27 29 29 29 29 30 31 33 35 36 36 33 33 34 34 31 28 27 27 26 25 26 29 29 29 30 29 29 30 30 30
28 27 23 20 23 23 16 18 22 25 27 27 27 28 27 27 27 29 29 31 33 35 36 36 33 33 33 33 32 29 27 26 25 24 23 24 25 27 27 26 25 25 26 27
27 25 25 21 21 3 11 21 21 22 23 28 28 28 28 27 29 30 30 33 35 35 35 36 35 33 33 34 32 29 27 25 24 22 21 22 24 25 25 25 24 23 24 25
30 28 24 20 16 19 14 18 22 20 17 22 26 26 24 26 31 25 35 35 35 36 37 37 36 34 33 33 32 28 25 24 23 21 21 22 23 24 23 23 23 23 22 22
31 30 26 23 19 13 7 18 29 20 11 18 23 22 24 29 19 20 27 34 33 34 35 36 36 33 33 32 30 27 25 24 23 22 22 22 23 23 21 22 23 22 21 21
28 29 27 25 24 23 25 24 24 15 8 19 25 25 27 26 24 23 33 30 31 31 34 36 34 33 33 31 28 27 26 24 23 23 23 22 21 21 19 20 21 21 20 21
26 24 24 25 22 19 26 24 18 18 25 24 26 26 27 28 28 29 30 30 30 30 32 34 35 33 32 31 28 28 26 26 24 22 21 19 18 17 19 20 21 20 20 20
19 23 24 25 24 25 25 25 25 23 24 25 26 27 28 28 28 28 29 29 30 31 32 35 34 33 32 29 28 26 24 22 20 19 17 16 17 17 18 19 19 19 20 20
22 23 22 23 20 24 25 26 26 26 26 26 27 28 28 28 28 29 30 30 31 31 31 34 33 32 30 27 25 25 21 20 17 15 16 17 17 18 18 19 20 20 20 20
23 22 21 21 21 22 22 22 22 23 25 26 27 28 29 29 29 30 30 30 30 30 29 34 33 31 28 24 23 21 19 17 15 14 16 17 18 19 19 19 20 20 21 23
26 24 21 20 21 21 21 23 25 26 27 27 28 28 30 30 30 30 29 29 28 27 29 33 31 28 23 20 20 20 18 16 15 15 17 19 19 20 20 20 20 24 25 26
Lifted_Index
5 5 6 7 7 7 6 6 5 6 7 7 7 7 8 9 10 9 9 10 10 10 10 10 11 12 13 12 11 11 11 11 11 10 10 10 10 10 11 10 10 10 10 9
5 5 6 7 7 7 6 5 5 6 7 7 7 6 7 8 9 9 9 10 10 10 10 10 11 12 12 12 11 11 11 11 11 11 11 11 10 10 10 10 10 10 10 9
5 6 6 7 7 6 6 6 6 6 6 6 6 5 6 7 8 9 9 9 9 9 9 9 10 12 12 11 10 10 10 10 11 11 11 11 11 10 10 10 10 10 9 8
5 6 6 6 6 6 6 6 6 6 6 5 5 4 4 6 7 8 9 9 9 8 8 9 10 12 12 11 10 10 10 10 10 10 10 10 10 9 9 9 9 9 9 8
5 6 6 6 6 7 7 7 7 7 6 5 5 4 4 5 6 7 8 8 8 8 8 9 10 12 11 10 9 9 9 9 9 9 9 9 8 8 8 9 10 10 9 8
6 6 7 7 7 8 8 7 7 6 5 4 4 4 3 4 5 6 6 6 7 7 8 9 10 11 12 10 9 9 9 9 9 9 9 8 8 8 9 9 10 9 8 7
5 6 7 7 7 8 7 6 4 3 2 2 3 3 4 5 5 5 5 6 6 7 8 9 10 11 12 11 10 10 9 9 9 9 9 9 8 9 9 9 9 9 7 6
4 5 6 7 7 7 6 5 3 2 1 2 3 3 4 5 5 5 5 6 6 6 7 9 10 11 12 12 12 11 10 10 10 10 10 9 9 9 9 9 9 8 7 5
4 4 5 6 6 6 5 5 4 3 2 2 3 3 4 4 5 5 5 6 6 6 8 9 10 10 12 13 13 12 12 11 11 11 11 10 10 9 9 9 9 8 7 6
4 4 5 5 5 5 5 5 4 4 2 1 2 3 3 4 4 5 5 5 6 6 7 8 9 10 11 13 14 14 13 12 12 12 11 11 10 9 9 9 8 8 7 6
5 5 4 5 5 5 5 5 4 4 2 1 1 2 3 4 5 5 5 6 6 6 7 8 9 10 10 12 13 14 14 13 13 12 12 11 11 10 9 9 8 8 8 7
6 5 4 4 5 6 6 6 5 4 3 2 1 2 4 5 5 5 6 6 7 7 7 8 8 9 9 10 11 13 14 14 14 13 13 13 13 12 11 10 9 9 9 8
7 6 4 4 5 6 6 6 6 6 4 3 2 2 4 6 6 6 7 8 8 7 7 8 8 9 9 9 10 11 12 13 14 14 15 15 16 15 14 13 12 11 10 10
8 7 5 4 5 6 6 6 7 6 4 3 2 3 5 7 8 8 9 9 9 8 8 8 9 9 9 9 9 10 11 12 13 13 14 15 16 17 17 17 16 14 13 12
8 7 6 6 7 7 6 6 6 5 4 3 3 4 6 8 10 10 10 10 9 9 9 9 9 9 10 10 10 9 10 11 12 12 13 14 16 17 18 18 18 17 17 16
9 8 6 6 7 7 5 5 6 6 6 5 4 5 8 10 10 11 10 10 10 9 9 9 9 9 10 10 11 10 10 11 12 12 12 13 14 16 18 18 19 19 19 19
10 9 6 5 5 5 5 5 6 7 7 7 6 7 9 10 11 11 11 10 10 10 9 9 9 9 9 10 11 11 11 11 12 12 13 13 14 15 17 18 19 19 19 19
10 9 7 5 4 4 5 6 7 7 7 8 8 9 10 11 11 11 11 10 10 10 10 9 9 9 9 9 10 11 11 11 12 12 13 14 14 16 17 18 19 19 20 20
11 10 8 5 3 3 5 7 8 7 7 8 9 10 11 11 11 11 11 11 11 11 11 11 10 9 8 8 9 10 10 11 12 13 13 14 15 16 18 19 19 20 20 20
10 9 7 5 3 3 5 8 9 8 7 8 10 10 10 10 10 10 11 11 12 12 12 12 11 9 8 8 8 9 9 10 11 12 13 14 15 16 18 19 20 20 20 20
7 7 6 5 4 4 6 9 9 7 7 9 10 10 10 10 10 11 11 12 12 12 12 12 12 10 9 9 8 8 9 9 11 12 13 14 15 16 18 20 21 21 21 20
6 5 5 5 4 5 7 8 8 8 9 10 10 10 10 10 11 11 11 12 12 12 12 12 12 11 10 9 9 8 9 9 10 11 12 13 14 16 18 20 21 21 21 20
6 6 6 6 5 6 8 9 9 10 10 11 11 11 11 11 11 11 11 12 12 12 12 12 12 11 10 9 9 9 9 10 10 11 11 12 14 16 18 20 20 20 20 20
6 7 7 7 6 7 9 10 10 11 11 11 12 12 12 12 11 11 11 12 12 12 12 12 12 11 10 9 9 10 10 10 10 10 11 12 13 15 18 19 20 19 18 17
5 6 6 7 7 8 9 10 10 11 11 11 12 12 12 12 12 12 12 12 12 13 13 12 12 11 10 9 10 10 10 10 10 11 11 12 13 15 17 18 19 18 16 15
4 5 5 6 8 9 9 9 10 10 11 11 11 11 12 12 12 12 12 12 12 13 13 12 12 10 10 10 10 10 10 11 11 11 11 12 13 15 17 18 18 17 15 15